Temp
35 38 38 37 37 38 36 36 30 34 37 42 45 47 49 51 50 51 53 51 49 47 46 46 45 46 46 46 46 45 44 43 42 41 41 39 39 39 39 42 42 42 40 40
29 36 37 33 36 37 38 38 38 38 37 45 45 46 45 46 47 48 48 49 48 47 46 46 46 45 45 45 44 43 43 42 42 40 38 37 36 35 35 35 38 37 37 37
27 32 33 28 33 36 37 39 38 31 38 42 41 42 42 42 44 45 47 46 46 45 45 44 42 42 42 42 41 40 40 40 39 37 35 35 37 36 35 34 35 33 33 33
27 29 20 34 41 42 40 41 42 41 41 41 41 41 42 42 42 43 44 45 45 44 43 42 40 41 40 39 38 36 36 35 34 34 35 35 34 33 33 33 32 31 31 31
24 24 31 35 38 37 35 35 41 40 41 42 43 41 39 44 43 42 42 43 42 41 40 42 41 38 37 34 33 33 32 32 31 33 33 33 32 32 32 31 31 30 30 31
25 20 17 31 39 44 42 26 40 41 40 40 39 29 34 44 43 42 41 42 42 40 38 38 37 37 35 33 33 33 33 33 33 33 33 32 32 32 32 30 27 29 29 30
24 21 27 36 41 43 28 29 40 41 40 39 34 37 42 41 39 37 39 39 40 38 37 35 36 34 33 33 33 33 33 33 33 33 33 33 32 31 28 28 28 28 27 28
23 17 17 41 39 33 36 36 40 39 40 38 40 41 41 40 34 35 34 36 39 36 35 36 35 35 34 32 33 32 32 32 32 32 32 32 30 27 28 27 26 24 25 24
29 27 36 38 36 39 40 39 38 39 40 41 39 38 38 35 32 34 36 35 37 36 35 35 34 33 35 33 33 32 32 31 31 31 31 31 28 26 25 25 26 24 25 23
31 33 35 38 39 41 42 41 41 42 41 41 36 29 32 34 34 35 37 34 36 35 33 33 33 35 36 33 33 32 30 30 30 30 28 25 28 28 26 24 25 25 24 23
29 33 36 38 40 41 41 41 41 41 41 41 38 35 37 35 36 36 37 34 36 35 33 32 31 31 33 33 32 31 30 30 29 29 27 27 27 28 28 28 28 26 24 24
26 35 35 35 38 41 40 39 41 41 41 42 42 39 39 38 38 38 36 35 35 33 32 31 30 30 33 33 33 31 29 29 28 27 28 28 28 28 30 30 30 29 28 26
34 37 37 37 39 41 39 40 41 40 40 40 40 40 40 39 38 37 36 36 34 33 29 29 28 30 32 32 32 31 29 29 28 28 28 27 28 27 26 29 31 30 29 28
38 36 34 34 34 38 38 39 41 41 40 39 40 40 40 39 38 37 35 34 33 31 30 31 30 26 31 31 31 29 27 28 26 26 26 27 27 26 27 26 25 26 29 28
37 37 39 39 37 36 38 38 37 37 37 37 38 39 38 38 37 35 33 33 32 31 30 30 29 29 31 27 25 23 23 22 25 26 26 25 25 25 25 25 24 25 26 26
36 36 37 35 37 37 36 35 35 35 36 35 36 36 38 38 35 34 32 32 29 26 30 29 28 29 31 28 26 21 22 24 26 26 25 25 24 24 23 22 21 21 23 23
32 31 32 32 33 34 35 36 37 36 36 36 37 38 36 33 33 32 31 30 31 29 29 29 28 30 30 30 29 26 25 25 26 26 25 25 24 22 22 21 20 19 17 16
38 39 38 38 36 38 38 37 37 37 37 37 33 32 32 31 30 29 29 29 29 28 29 29 29 30 29 29 29 27 28 27 27 26 26 24 24 24 22 21 20 19 17 16
36 38 39 42 41 40 39 37 35 35 36 33 32 31 30 30 30 29 29 29 28 27 27 29 30 30 29 30 30 29 28 28 27 27 26 21 21 20 18 15 14 12 14 14
34 35 35 34 35 33 33 30 30 27 28 31 29 29 27 26 26 28 29 28 28 28 29 29 30 30 30 29 29 29 29 28 27 24 23 21 18 15 14 13 14 11 9 10
31 32 31 31 31 32 31 27 22 21 27 31 29 28 28 29 29 29 28 27 27 29 29 29 29 29 29 27 28 24 25 23 20 20 19 18 18 18 13 11 13 12 10 10
31 30 30 30 30 30 31 29 26 25 26 29 28 28 26 28 28 27 27 28 28 28 29 29 28 28 26 23 25 24 22 22 19 18 15 15 14 13 14 16 15 15 17 11
30 30 30 30 29 29 30 30 30 30 29 29 28 28 28 29 29 27 24 28 29 29 29 28 28 28 25 18 27 27 22 14 14 14 13 12 12 11 10 11 9 9 5 7
29 29 29 29 30 30 28 29 29 28 28 28 28 29 29 27 27 29 28 29 29 29 28 28 28 28 28 16 27 27 19 12 12 8 11 8 7 4 4 7 7 6 4 7
30 29 29 30 30 29 29 29 28 28 28 29 29 30 30 29 26 27 27 28 29 28 28 28 28 28 27 21 25 26 15 13 12 10 11 9 8 8 8 8 9 10 8 9
31 31 31 32 29 28 27 28 27 28 28 27 28 28 28 27 28 27 27 27 27 28 27 28 26 25 25 17 10 8 9 11 12 9 10 10 8 9 9 7 7 9 9 7
32 31 31 30 30 30 29 29 27 25 27 28 26 27 27 26 26 26 26 26 25 25 26 26 26 23 18 20 13 10 11 11 12 13 10 10 8 8 10 9 8 5 4 5
MSLP
1013.33 1013.17 1013.01 1013.08 1013.52 1013.81 1014.34 1014.89 1015.27 1015.57 1015.15 1014.51 1014.62 1014.68 1014.93 1014.44 1014.26 1013.84 1013.74 1013.78 1013.98 1014.20 1014.18 1014.41 1014.76 1014.81 1014.74 1014.82 1014.94 1015.24 1015.24 1015.34 1015.54 1015.80 1015.96 1016.33 1016.72 1016.93 1017.03 1017.16 1017.44 1017.82 1018.46 1018.95
1014.53 1014.29 1014.00 1014.03 1014.03 1013.99 1014.34 1014.65 1014.72 1014.98 1014.46 1013.85 1013.95 1014.40 1014.48 1014.40 1014.16 1013.96 1013.76 1013.76 1013.69 1013.98 1014.21 1014.74 1015.12 1015.28 1015.45 1015.59 1015.71 1015.65 1015.69 1015.81 1015.91 1016.03 1016.24 1016.52 1017.01 1017.39 1017.60 1017.84 1017.96 1018.12 1018.79 1019.32
1015.28 1015.11 1014.91 1014.49 1013.32 1013.71 1013.93 1013.78 1013.79 1014.40 1013.92 1014.01 1014.02 1014.42 1014.43 1014.49 1014.42 1014.11 1013.73 1013.69 1013.77 1014.22 1014.66 1014.91 1015.28 1015.53 1015.83 1016.07 1016.21 1016.11 1016.10 1016.16 1016.29 1016.59 1016.86 1017.22 1017.59 1017.86 1018.28 1018.52 1018.91 1019.20 1019.51 1019.89
1015.74 1015.96 1015.53 1013.00 1012.76 1012.78 1012.95 1013.12 1013.36 1013.71 1013.70 1013.75 1013.92 1014.32 1014.44 1014.52 1014.66 1014.76 1014.76 1014.73 1014.72 1014.97 1015.31 1015.73 1016.01 1016.16 1016.28 1016.48 1016.56 1016.45 1016.43 1016.50 1016.79 1017.17 1017.15 1017.60 1018.07 1018.52 1018.72 1019.05 1019.48 1019.95 1020.22 1020.72
1015.82 1016.13 1015.09 1013.19 1012.93 1012.74 1012.69 1013.17 1013.16 1013.70 1014.09 1014.07 1014.15 1014.62 1014.83 1014.58 1014.80 1014.98 1015.09 1015.24 1015.31 1015.53 1015.95 1016.15 1016.47 1016.92 1017.10 1017.25 1017.13 1016.97 1016.67 1016.97 1017.30 1017.35 1017.49 1017.86 1018.36 1018.83 1019.38 1019.50 1019.97 1020.46 1020.72 1021.06
1016.19 1016.27 1015.27 1013.19 1012.50 1012.07 1012.61 1013.37 1013.27 1013.39 1013.97 1014.31 1014.69 1015.47 1015.28 1014.88 1014.66 1015.14 1015.62 1015.89 1015.85 1016.04 1016.37 1016.57 1016.81 1017.13 1017.34 1017.38 1017.39 1017.72 1017.59 1017.31 1017.38 1017.56 1017.82 1018.21 1018.38 1018.82 1019.61 1020.08 1020.48 1020.78 1021.21 1021.48
1015.72 1015.63 1014.43 1012.93 1012.39 1012.55 1013.27 1012.90 1012.81 1013.21 1013.58 1014.13 1014.59 1014.69 1014.92 1015.05 1015.19 1015.47 1015.82 1016.14 1016.33 1016.47 1016.55 1016.82 1016.90 1017.12 1017.67 1017.85 1017.80 1018.11 1018.00 1017.71 1017.66 1017.98 1018.23 1018.37 1018.59 1019.14 1020.06 1020.53 1021.00 1021.41 1021.78 1022.09
1015.52 1015.55 1014.22 1012.20 1012.53 1012.60 1012.18 1012.27 1012.67 1013.07 1013.33 1013.84 1013.76 1014.15 1014.46 1014.76 1015.27 1015.93 1016.19 1016.37 1016.49 1016.83 1016.98 1016.73 1017.02 1017.22 1017.62 1017.75 1018.05 1018.30 1018.22 1017.90 1018.01 1018.32 1018.61 1018.71 1019.03 1019.96 1020.56 1020.85 1021.29 1021.91 1022.43 1022.64
1013.06 1012.83 1012.20 1011.89 1011.79 1011.60 1011.70 1011.94 1012.47 1012.90 1013.35 1013.58 1013.99 1014.51 1014.43 1014.62 1015.21 1015.74 1015.96 1016.09 1016.17 1016.39 1016.63 1016.68 1017.05 1017.32 1017.47 1017.62 1017.97 1018.18 1018.24 1018.31 1018.29 1018.56 1018.71 1018.90 1019.45 1020.22 1020.78 1021.34 1021.72 1022.16 1022.79 1023.09
1012.59 1012.05 1011.82 1011.79 1011.76 1011.60 1011.59 1011.67 1011.96 1012.40 1012.76 1013.06 1013.98 1014.03 1014.58 1014.60 1014.86 1015.24 1015.51 1015.69 1015.83 1016.04 1016.51 1016.54 1016.52 1016.85 1017.01 1017.46 1017.68 1018.16 1018.24 1018.36 1018.61 1018.79 1018.99 1019.61 1019.98 1020.45 1020.88 1021.48 1021.82 1022.12 1023.09 1023.47
1012.24 1012.05 1012.24 1011.94 1011.85 1011.73 1011.67 1011.82 1012.21 1012.57 1012.67 1012.99 1013.40 1013.80 1014.00 1014.10 1014.41 1014.67 1014.74 1014.97 1015.23 1015.58 1016.01 1016.51 1016.75 1016.80 1016.93 1017.19 1017.38 1017.78 1018.15 1018.70 1019.11 1019.22 1019.47 1019.96 1020.36 1020.77 1021.05 1021.39 1021.52 1021.91 1022.68 1023.59
1012.10 1011.98 1012.02 1012.05 1011.94 1012.00 1012.25 1012.50 1012.70 1012.83 1012.66 1012.57 1012.55 1012.91 1013.29 1013.44 1013.47 1013.82 1014.16 1014.50 1014.93 1015.30 1015.86 1016.32 1016.74 1016.88 1016.90 1017.04 1017.22 1017.53 1018.29 1018.83 1019.14 1019.46 1019.71 1020.06 1020.60 1021.06 1021.41 1021.50 1021.82 1022.07 1022.55 1023.42
1011.38 1011.61 1011.60 1011.46 1011.79 1012.01 1012.31 1012.32 1012.13 1012.22 1012.15 1012.08 1011.92 1012.19 1012.58 1012.90 1012.98 1013.28 1013.76 1014.33 1014.86 1015.50 1015.80 1016.27 1016.64 1016.67 1016.89 1017.09 1017.17 1017.77 1018.39 1018.92 1019.30 1019.62 1019.84 1020.22 1020.78 1021.20 1021.54 1021.89 1022.05 1022.21 1022.55 1023.18
1011.10 1011.38 1011.07 1011.36 1011.51 1011.56 1011.62 1011.68 1011.63 1011.51 1011.52 1011.49 1011.47 1011.76 1012.04 1012.28 1012.50 1012.96 1013.44 1013.91 1014.71 1015.38 1015.81 1016.32 1016.54 1016.78 1016.88 1016.98 1017.42 1018.08 1018.61 1018.97 1019.35 1019.71 1020.07 1020.43 1020.91 1021.45 1021.74 1021.94 1022.16 1022.33 1022.69 1023.11
1010.27 1010.38 1010.11 1010.77 1011.15 1011.24 1011.31 1011.50 1011.47 1011.23 1011.09 1011.10 1011.04 1011.28 1011.53 1011.83 1012.19 1012.71 1013.37 1014.06 1014.85 1015.41 1015.86 1016.21 1016.49 1016.89 1017.09 1017.29 1017.76 1018.45 1018.83 1019.22 1019.62 1020.01 1020.37 1020.79 1021.21 1021.69 1022.02 1022.26 1022.49 1022.58 1022.89 1023.42
1009.71 1009.95 1010.20 1010.49 1010.50 1010.80 1011.09 1011.09 1011.09 1010.88 1010.82 1010.85 1010.93 1011.02 1011.17 1011.54 1012.18 1012.92 1013.59 1014.09 1014.83 1015.52 1015.94 1016.24 1016.72 1016.97 1017.04 1017.36 1018.01 1018.69 1019.09 1019.42 1019.79 1020.24 1020.71 1021.15 1021.60 1022.05 1022.39 1022.63 1022.89 1023.03 1023.40 1023.91
1009.87 1009.73 1009.77 1010.12 1010.28 1010.46 1010.58 1010.72 1010.65 1010.49 1010.42 1010.44 1010.47 1010.97 1011.23 1011.59 1012.54 1013.30 1014.03 1014.55 1014.90 1015.56 1016.03 1016.28 1016.60 1016.82 1017.05 1017.49 1018.10 1018.72 1019.19 1019.60 1019.93 1020.44 1020.96 1021.44 1021.95 1022.39 1022.77 1023.08 1023.41 1023.74 1024.12 1024.27
1008.91 1008.72 1008.96 1009.06 1009.30 1009.64 1009.81 1010.06 1009.90 1009.82 1009.77 1010.15 1010.54 1010.87 1011.03 1011.78 1012.62 1013.66 1014.29 1014.75 1015.32 1015.89 1016.12 1016.24 1016.57 1016.95 1017.35 1017.76 1018.18 1018.81 1019.22 1019.67 1020.05 1020.52 1021.04 1021.66 1022.19 1022.58 1023.06 1023.46 1023.89 1024.32 1024.75 1025.00
1008.38 1008.42 1008.62 1008.59 1008.57 1008.84 1008.94 1009.17 1009.33 1009.41 1009.62 1010.06 1010.70 1011.56 1011.96 1012.41 1013.09 1013.88 1014.44 1014.93 1015.40 1015.97 1016.45 1016.60 1016.92 1017.21 1017.52 1017.83 1018.38 1018.93 1019.34 1019.70 1020.20 1020.73 1021.20 1021.89 1022.41 1022.78 1023.22 1023.67 1024.20 1024.72 1025.05 1025.44
1009.38 1009.10 1008.96 1008.95 1008.90 1008.98 1009.15 1009.41 1009.60 1010.10 1010.23 1010.55 1011.29 1012.11 1012.82 1013.40 1013.94 1014.39 1014.82 1015.39 1015.70 1016.07 1016.46 1016.81 1017.18 1017.40 1017.68 1018.05 1018.69 1019.17 1019.48 1019.85 1020.43 1020.98 1021.50 1022.05 1022.48 1022.93 1023.42 1023.95 1024.52 1025.06 1025.37 1025.66
1010.31 1010.09 1009.90 1009.79 1009.84 1009.86 1009.98 1010.28 1010.56 1010.95 1011.11 1011.36 1011.78 1012.59 1013.16 1013.79 1014.28 1014.72 1015.30 1015.76 1016.21 1016.30 1016.57 1017.10 1017.36 1017.66 1017.91 1018.46 1018.98 1019.41 1019.79 1020.28 1020.75 1021.21 1021.72 1022.20 1022.71 1023.20 1023.67 1024.17 1024.55 1024.90 1025.31 1025.57
1011.04 1010.88 1010.66 1010.54 1010.52 1010.67 1010.85 1011.21 1011.52 1011.64 1011.92 1012.26 1012.78 1013.24 1013.77 1014.23 1014.65 1015.08 1015.39 1015.72 1016.29 1016.57 1016.88 1017.13 1017.52 1017.90 1018.27 1018.71 1019.08 1019.48 1019.99 1020.47 1021.05 1021.51 1022.02 1022.43 1022.88 1023.39 1023.85 1024.14 1024.53 1024.74 1025.02 1025.39
1011.62 1011.42 1011.28 1011.31 1011.38 1011.51 1011.61 1011.86 1012.13 1012.32 1012.75 1013.11 1013.40 1013.72 1014.03 1014.43 1014.77 1015.22 1015.82 1016.09 1016.29 1016.62 1016.90 1017.34 1017.75 1018.13 1018.53 1018.91 1019.22 1019.62 1020.27 1020.91 1021.41 1021.72 1022.11 1022.46 1022.87 1023.35 1023.85 1024.15 1024.38 1024.60 1024.97 1025.30
1012.02 1011.92 1011.91 1011.90 1011.92 1012.03 1012.26 1012.57 1012.74 1013.03 1013.36 1013.61 1013.84 1014.00 1014.40 1014.83 1015.23 1015.38 1015.61 1015.93 1016.29 1016.75 1017.18 1017.55 1017.97 1018.34 1018.77 1019.09 1019.40 1019.81 1020.44 1021.00 1021.41 1021.72 1022.08 1022.45 1022.86 1023.29 1023.71 1023.99 1024.29 1024.45 1024.70 1025.04
1012.21 1012.22 1012.24 1012.31 1012.44 1012.66 1012.92 1013.11 1013.33 1013.58 1013.82 1014.10 1014.30 1014.52 1014.72 1014.86 1015.18 1015.56 1015.80 1016.17 1016.58 1017.02 1017.38 1017.71 1018.05 1018.45 1018.94 1019.32 1019.54 1019.90 1020.39 1020.83 1021.22 1021.61 1022.06 1022.47 1022.85 1023.14 1023.37 1023.67 1023.88 1024.11 1024.40 1024.69
1012.26 1012.30 1012.38 1012.48 1012.69 1012.97 1013.24 1013.43 1013.64 1013.89 1014.12 1014.44 1014.72 1014.90 1015.07 1015.23 1015.44 1015.73 1016.04 1016.44 1016.84 1017.21 1017.48 1017.82 1018.20 1018.58 1019.03 1019.42 1019.72 1020.02 1020.36 1020.79 1021.21 1021.53 1021.83 1022.17 1022.52 1022.82 1023.05 1023.31 1023.65 1023.94 1024.18 1024.42
1012.17 1012.28 1012.45 1012.60 1012.80 1013.03 1013.29 1013.52 1013.78 1014.03 1014.23 1014.41 1014.72 1014.97 1015.20 1015.52 1015.76 1016.00 1016.37 1016.81 1017.16 1017.45 1017.66 1017.87 1018.20 1018.63 1018.96 1019.39 1019.74 1020.08 1020.37 1020.69 1021.01 1021.30 1021.59 1021.89 1022.27 1022.57 1022.89 1023.20 1023.35 1023.72 1024.12 1024.33
Wind_Speed
3 3 2 4 9 7 5 7 7 5 7 5 7 3 6 10 10 10 12 11 9 10 8 8 6 4 1 2 4 3 3 3 4 3 3 2 2 3 4 5 6 8 9 8
3 3 6 1 6 6 6 5 5 6 12 6 5 5 6 8 7 9 11 11 8 4 2 1 1 2 3 3 3 3 3 4 5 3 2 3 4 4 5 5 6 9 9 9
4 5 6 8 11 10 6 6 9 9 12 5 4 4 4 4 4 6 4 4 6 6 4 3 3 2 3 3 3 3 3 3 0 2 4 4 4 5 5 5 5 6 7 8
4 6 5 5 4 8 9 7 7 3 3 4 3 4 2 1 2 3 3 4 4 3 3 5 6 6 4 4 3 1 1 1 2 3 5 5 5 5 6 6 7 6 7 7
6 4 6 5 7 7 8 7 7 6 7 4 3 5 3 4 1 2 2 1 1 2 2 2 3 5 5 6 6 4 1 3 2 4 6 6 6 6 5 7 6 4 5 7
3 5 10 6 3 7 6 6 7 8 7 6 5 2 4 5 4 4 3 2 3 1 2 2 2 3 3 3 4 4 3 1 4 4 5 6 7 8 4 4 5 6 6 5
4 3 7 6 5 4 7 8 7 8 8 8 6 6 5 2 3 1 2 3 3 2 2 3 2 3 2 3 3 2 2 3 4 4 4 6 6 6 6 7 7 6 6 5
3 3 10 7 3 10 7 3 8 6 7 8 7 6 6 7 4 5 2 4 4 5 4 2 1 1 2 1 1 2 1 4 5 5 4 5 8 6 6 7 7 6 6 5
9 9 4 2 2 4 6 7 6 6 4 7 7 6 5 4 4 6 6 6 5 6 6 5 3 2 2 1 3 3 3 4 5 6 5 6 8 7 6 5 6 6 5 4
4 2 4 4 2 1 2 5 6 7 7 8 6 4 5 4 5 6 7 6 5 6 6 5 4 4 3 4 5 4 4 4 4 5 6 4 5 5 5 5 5 6 5 4
1 3 5 7 5 4 1 2 3 3 4 4 5 5 7 6 7 8 8 5 5 6 6 4 3 3 4 5 6 5 4 4 3 4 5 5 3 4 5 4 6 7 5 4
6 6 4 3 4 3 4 3 4 6 8 9 8 10 8 7 7 6 8 5 5 5 6 6 5 4 4 5 5 5 5 4 4 4 5 5 5 4 7 10 12 12 14 7
8 6 9 6 8 7 7 12 12 9 11 9 9 8 7 6 6 6 6 6 5 5 4 4 3 3 4 4 5 5 5 5 4 5 5 5 5 5 5 7 13 14 14 12
8 5 11 6 8 9 10 10 10 8 8 8 9 7 7 7 4 6 7 7 7 6 5 4 4 3 3 5 5 5 5 6 4 4 4 4 4 4 3 4 4 5 11 10
13 12 16 8 6 8 7 6 10 10 9 8 8 9 7 8 8 7 7 7 6 6 5 5 4 3 4 5 6 6 4 3 4 4 4 5 4 4 3 3 2 3 6 6
10 8 11 10 12 10 7 8 8 7 6 6 7 7 7 5 7 7 7 8 6 4 4 5 4 3 4 6 6 4 4 7 5 5 5 5 4 4 3 3 3 3 5 5
7 8 5 5 8 8 7 6 8 9 7 10 7 5 7 10 10 8 6 4 6 6 4 5 4 3 4 7 7 4 3 4 6 5 5 4 4 4 3 3 3 3 3 1
15 13 8 7 9 6 3 11 12 11 10 5 7 5 9 10 11 9 7 7 7 5 4 4 4 4 5 6 6 5 4 4 5 5 5 5 5 4 4 4 4 4 3 3
7 7 7 8 6 8 9 9 6 5 6 7 10 6 5 8 9 8 7 6 6 5 2 4 5 5 6 6 6 4 5 6 5 5 5 5 4 4 4 4 4 4 4 4
9 8 7 6 5 1 1 3 5 5 4 10 11 9 8 7 6 7 6 5 4 3 6 5 4 5 5 6 6 6 7 7 7 5 5 4 4 4 4 5 5 4 4 4
8 6 6 5 5 6 6 5 5 6 6 8 10 9 8 7 6 7 5 4 2 6 6 6 4 3 4 5 5 4 5 5 4 4 4 4 4 4 4 4 4 5 4 3
5 5 5 6 6 6 7 7 6 6 7 9 8 7 7 7 6 5 3 3 4 6 4 4 3 5 5 5 4 4 4 4 4 4 3 4 4 4 4 4 4 4 4 4
4 4 4 5 4 4 6 6 5 6 6 5 5 5 5 4 4 4 3 3 4 5 4 4 5 7 7 3 4 4 5 5 4 4 4 4 4 4 4 5 4 4 4 4
2 3 2 3 4 5 5 3 5 5 5 4 4 4 5 4 3 3 3 6 7 6 3 4 5 6 5 3 3 4 4 4 4 3 3 4 3 3 3 4 4 3 3 4
1 1 2 2 3 3 4 4 4 4 5 4 3 3 3 2 3 3 4 4 7 5 3 5 6 7 3 3 2 3 4 4 4 4 4 4 4 4 4 4 4 5 4 4
3 2 1 1 2 2 2 2 2 2 3 3 3 2 3 2 3 4 4 5 4 4 3 4 3 3 3 3 3 4 4 3 4 4 4 4 4 4 4 4 4 4 4 4
3 3 1 2 2 3 3 3 3 3 3 3 3 3 4 3 4 5 5 4 3 3 2 2 4 4 3 3 3 3 3 3 4 4 4 4 3 4 4 4 4 3 3 4
Wind_Direction
32 70 84 126 156 150 126 149 153 179 243 220 236 201 240 255 247 256 268 279 250 223 197 204 210 198 160 323 334 320 316 308 285 251 226 182 178 157 136 145 147 139 130 122
35 14 50 200 173 165 168 179 194 198 250 252 261 246 251 256 261 256 254 248 247 223 135 168 285 342 351 323 333 340 324 308 294 251 204 161 134 135 125 113 126 125 132 129
170 97 40 304 185 185 186 189 160 192 222 182 249 182 244 291 316 291 284 140 112 96 95 63 10 9 313 312 333 348 343 350 47 161 160 136 120 113 106 105 100 105 110 113
131 91 200 239 170 181 187 183 200 226 268 137 160 147 150 110 132 48 31 45 69 70 34 15 359 341 337 355 336 319 288 193 165 155 109 106 103 106 105 104 109 112 99 103
150 198 321 281 218 185 168 219 196 187 172 151 136 131 255 207 214 229 305 332 326 39 53 30 10 356 359 337 336 333 108 98 120 122 122 121 120 117 119 114 115 114 121 119
155 167 202 238 196 128 88 267 188 159 157 149 121 129 259 210 197 238 265 310 271 269 26 28 4 7 355 349 351 315 312 132 133 128 134 142 134 128 113 105 111 115 107 111
160 192 283 214 166 131 161 229 181 169 169 163 163 187 221 229 242 167 202 269 291 235 231 261 318 49 6 326 317 286 195 131 112 117 130 132 114 111 117 113 109 106 99 80
125 122 256 173 154 205 206 175 165 182 190 187 184 193 218 239 217 173 205 275 236 214 242 256 267 60 283 313 264 231 177 127 120 115 122 115 110 109 117 121 118 111 111 90
174 202 224 212 232 220 171 159 198 188 183 180 189 212 209 236 264 207 204 230 228 211 202 193 200 194 272 207 174 172 145 134 132 131 126 125 126 128 116 117 128 122 127 117
112 184 211 222 225 239 202 204 162 176 182 175 190 200 220 231 253 253 253 225 217 188 209 209 172 189 177 175 158 161 155 148 142 128 106 91 115 124 131 135 137 127 137 137
298 291 339 275 221 222 185 97 110 138 172 213 193 212 207 211 228 236 241 222 209 199 194 192 171 174 168 166 153 152 127 115 112 108 115 113 94 135 145 144 157 147 141 158
227 193 202 228 140 146 146 185 239 248 262 253 216 212 205 219 222 216 230 201 200 173 162 168 182 175 162 162 159 136 142 141 141 133 131 117 125 109 138 144 149 144 145 155
250 192 221 227 205 202 245 253 248 225 229 233 227 205 205 223 231 213 190 178 168 180 160 149 152 136 160 155 132 137 139 149 143 139 133 136 138 141 145 153 153 155 158 160
247 229 261 225 242 222 225 241 238 232 234 210 210 206 214 220 218 199 186 174 146 143 133 124 122 130 139 125 119 126 133 138 126 127 126 127 127 133 143 160 166 158 162 157
255 224 248 249 216 228 228 241 248 242 234 223 208 208 208 214 209 180 140 131 135 129 120 114 107 128 132 125 124 129 114 110 114 111 114 114 113 114 119 123 135 140 134 137
262 239 239 232 248 257 230 224 234 253 265 240 222 205 216 187 129 133 129 126 124 142 134 125 140 168 139 125 119 106 109 128 123 126 130 125 121 122 113 104 93 90 128 137
247 261 226 234 215 196 210 235 248 247 236 233 224 234 178 138 125 116 112 120 115 118 135 133 143 132 114 131 137 138 122 133 131 130 137 135 132 129 124 114 106 91 91 99
241 236 217 198 180 202 296 274 267 260 235 176 107 100 125 136 137 130 126 115 104 99 100 109 117 127 127 134 130 134 140 136 135 138 137 137 144 141 138 131 127 122 107 83
340 217 227 222 220 225 225 242 239 225 186 145 128 127 113 114 120 123 125 118 115 118 121 122 143 135 138 131 130 126 157 158 141 152 154 137 133 133 134 133 133 135 139 134
18 24 12 8 15 72 183 86 98 92 92 118 114 117 112 115 118 122 123 132 141 143 140 128 135 129 124 122 132 167 165 165 168 158 152 143 138 139 138 141 141 147 153 155
8 17 30 48 55 56 71 84 99 101 99 113 123 130 124 125 126 128 128 131 140 136 132 145 124 113 108 124 145 142 147 144 142 147 149 149 139 140 144 147 152 159 161 149
2 16 28 35 57 65 70 79 82 83 82 96 100 111 122 127 121 94 73 138 135 137 129 120 112 132 128 136 131 132 133 136 136 132 133 138 142 147 158 162 165 168 171 160
2 12 33 46 63 67 74 75 76 88 93 102 120 127 127 131 137 128 120 113 127 135 113 121 140 136 137 126 132 133 134 138 151 151 152 153 159 160 158 176 178 167 169 174
21 38 52 68 75 86 94 73 91 90 98 102 107 107 128 123 73 80 108 135 130 135 133 141 152 140 137 139 137 138 138 148 152 152 148 145 154 149 147 164 180 194 168 164
47 71 70 78 96 93 108 107 102 110 112 113 119 125 115 87 138 158 128 125 145 138 134 162 155 143 126 145 150 144 150 161 166 154 159 162 170 179 179 177 184 182 181 182
179 189 180 135 135 120 103 114 125 117 129 143 153 149 113 92 110 121 116 115 121 139 137 150 147 148 153 154 165 163 156 145 154 170 167 173 174 181 182 181 172 176 182 183
158 160 171 113 145 161 163 159 151 174 158 144 127 131 130 124 126 122 115 117 124 125 116 122 145 160 167 161 165 173 166 162 167 164 168 164 166 167 167 169 168 161 149 152